logo tempoitalia

Diretta Meteo Odesa, Ucrainamercoledì 15 luglio ore 07:00

Mappa
Sereno 15 °C Sereno 24 Ore: T.min 11 T.max 26
Ponente Nord Km/h 3.6 Punto di rugiada: 8 °C Umidità: 62% Visibilità: 10 Km
Il sole sorge alle: 05:18 Il sole tramonta alle: 20:47
15 Luglio 2020 07:00 tempo osservato: Sereno Sereno 15 62 1015 vento: Nord N 3.6
15 Luglio 2020 06:30 tempo osservato: Sereno Sereno 14 67 1015 vento: Nord N 0
15 Luglio 2020 06:00 tempo osservato: Sereno Sereno 11 76 1015 vento: Nord N 0
15 Luglio 2020 05:30 tempo osservato: Sereno Sereno 12 71 1015 vento: Nord N 3.6
15 Luglio 2020 05:00 tempo osservato: Sereno Sereno 13 66 1015 vento: Nord N 0
15 Luglio 2020 04:30 tempo osservato: Sereno Sereno 12 71 1015 vento: Nord N 0
15 Luglio 2020 04:00 tempo osservato: Sereno Sereno 13 71 1015 vento: Nord N 0
15 Luglio 2020 03:30 tempo osservato: Sereno Sereno 13 71 1015 vento: Nord N 0
15 Luglio 2020 02:30 tempo osservato: Sereno Sereno 14 67 1015 vento: Nord N 0
15 Luglio 2020 02:00 tempo osservato: Sereno Sereno 14 67 1015 vento: Nord N 3.6
15 Luglio 2020 01:30 tempo osservato: Sereno Sereno 14 67 1015 vento: Nord N 0
15 Luglio 2020 00:30 tempo osservato: Sereno Sereno 15 62 1014 vento: Nord N 0
15 Luglio 2020 00:00 tempo osservato: Sereno Sereno 15 62 1014 vento: Nord N 7.2
14 Luglio 2020 23:30 tempo osservato: Sereno Sereno 16 58 1014 vento: Nord N 0
14 Luglio 2020 23:00 tempo osservato: Sereno Sereno 17 55 1014 vento: Nord O 10.8
14 Luglio 2020 22:00 tempo osservato: Sereno Sereno 18 48 1014 vento: Nord O 10.8
14 Luglio 2020 21:30 tempo osservato: Sereno Sereno 19 42 1014 vento: Nord O 10.8
14 Luglio 2020 21:00 tempo osservato: Sereno Sereno 21 35 1013 vento: Nord O/NO 10.8
14 Luglio 2020 20:30 tempo osservato: Sereno Sereno 22 30 1013 vento: Nord O/NO 14.4
14 Luglio 2020 20:00 tempo osservato: Sereno Sereno 24 25 1013 vento: Nord N/NO 21.6
14 Luglio 2020 19:00 tempo osservato: Sereno Sereno 25 25 1012 vento: Nord NO 25.2
14 Luglio 2020 18:30 tempo osservato: Sereno Sereno 24 25 1012 vento: Nord O/NO 28.8
14 Luglio 2020 18:00 tempo osservato: Sereno Sereno 24 27 1012 vento: Nord NO 21.6
14 Luglio 2020 17:30 tempo osservato: Sereno Sereno 25 23 1012 vento: Nord O/NO 25.2
14 Luglio 2020 17:00 tempo osservato: Sereno Sereno 25 23 1012 vento: Nord NO 18
14 Luglio 2020 16:30 tempo osservato: Sereno Sereno 26 22 1012 vento: Nord O/NO 21.6
14 Luglio 2020 16:00 tempo osservato: Sereno Sereno 26 22 1012 vento: Nord N/NO 18
14 Luglio 2020 15:30 tempo osservato: Sereno Sereno 25 23 1012 vento: Nord NO 25.2
14 Luglio 2020 14:30 tempo osservato: Sereno Sereno 24 25 1013 vento: Nord N/NO 18
14 Luglio 2020 14:00 tempo osservato: Sereno Sereno 24 27 1013 vento: Nord NO 25.2
14 Luglio 2020 13:30 tempo osservato: Sereno Sereno 23 28 1013 vento: Nord O/NO 25.2
14 Luglio 2020 13:00 tempo osservato: Sereno Sereno 25 25 1013 vento: Nord N/NO 25.2
14 Luglio 2020 12:30 tempo osservato: Sereno Sereno 24 29 1013 vento: Nord N/NO 28.8
14 Luglio 2020 12:00 tempo osservato: Sereno Sereno 24 31 1013 vento: Nord NO 32.4
14 Luglio 2020 11:30 tempo osservato: Sereno Sereno 23 33 1013 vento: Nord NO 28.8
14 Luglio 2020 11:00 tempo osservato: Sereno Sereno 23 35 1013 vento: Nord N/NO 28.8
14 Luglio 2020 10:30 tempo osservato: Sereno Sereno 22 43 1013 vento: Nord NO 25.2
14 Luglio 2020 10:00 tempo osservato: Sereno Sereno 21 43 1013 vento: Nord NO 28.8
14 Luglio 2020 09:30 tempo osservato: Sereno Sereno 20 49 1013 vento: Nord NO 25.2
14 Luglio 2020 09:00 tempo osservato: Sereno Sereno 19 52 1013 vento: Nord NO 25.2